This demonstration page uses our WeatherBlox Daily Observations layout. Learn more.

Left ArrowRight Arrow

Hourly Observations for January 2, 2016

Temp ( °F °C ) Dew Point ( °F °C ) Humidity (%) Winds ( mph kmh ) Pressure ( in mb ) Visibility ( mi km ) Precip ( " mm )
12:54 am 00:54 Clear 20 -6.7 16 -8.9 85 85 Calm 30.34 1027 10 16 0.00 0.00
1:54 am 01:54 Clear 19 -7.2 14 -10 81 81 Calm 30.33 1027 10 16 0.00 0.00
2:54 am 02:54 Clear 19 -7.2 13 -10.6 77 77 Calm 30.34 1027 10 16 0.00 0.00
3:54 am 03:54 Clear 15 -9.4 11 -11.7 84 84 N 3 6 30.32 1027 10 16 0.00 0.00
4:54 am 04:54 Clear 20 -6.7 13 -10.6 74 74 Calm 30.30 1026 10 16 0.00 0.00
5:54 am 05:54 Clear 17 -8.3 11 -11.7 77 77 W 3 6 30.31 1026 10 16 0.00 0.00
6:54 am 06:54 Clear 18 -7.8 12 -11.1 77 77 NNW 3 6 30.30 1026 10 16 0.00 0.00
7:54 am 07:54 Sunny 16 -8.9 11 -11.7 80 80 WSW 3 6 30.31 1027 10 16 0.00 0.00
8:54 am 08:54 Sunny 20 -6.7 16 -8.9 85 85 Calm 30.30 1026 10 16 0.00 0.00
9:54 am 09:54 Sunny 26 -3.3 18 -7.8 71 71 SW 5 7 30.30 1026 10 16 0.00 0.00
10:54 am 10:54 Sunny 32 0 18 -7.8 56 56 W 8 13 30.29 1026 10 16 0.00 0.00
11:54 am 11:54 Sunny 34 1.1 19 -7.2 54 54 W 7 11 30.27 1025 10 16 0.00 0.00
12:54 pm 12:54 Sunny 36 2.2 21 -6.1 55 55 WSW 7 11 30.23 1024 10 16 0.00 0.00
1:54 pm 13:54 Sunny 39 3.9 22 -5.6 50 50 WSW 8 13 30.20 1023 10 16 0.00 0.00
2:54 pm 14:54 Sunny 39 3.9 22 -5.6 50 50 W 13 20 30.20 1023 10 16 0.00 0.00
3:54 pm 15:54 Sunny 38 3.3 23 -5 55 55 W 10 17 30.20 1023 10 16 0.00 0.00
4:54 pm 16:54 Sunny 36 2.2 23 -5 59 59 W 7 11 30.22 1023 10 16 0.00 0.00
5:54 pm 17:54 Clear 34 1.1 23 -5 64 64 W 3 6 30.22 1023 10 16 0.00 0.00
6:54 pm 18:54 Clear 32 0 23 -5 69 69 W 3 6 30.22 1023 10 16 0.00 0.00
7:54 pm 19:54 Clear 27 -2.8 21 -6.1 78 78 Calm 30.23 1024 10 16 0.00 0.00
8:54 pm 20:54 Clear 24 -4.4 19 -7.2 81 81 Calm 30.24 1024 10 16 0.00 0.00
9:54 pm 21:54 Clear 29 -1.7 19 -7.2 66 66 Calm 30.25 1024 10 16 0.00 0.00
10:54 pm 22:54 Clear 25 -3.9 17 -8.3 72 72 Calm 30.25 1024 10 16 0.00 0.00
11:54 pm 23:54 Clear 25 -3.9 17 -8.3 72 72 NNW 7 11 30.27 1025 10 16 0.00 0.00

Powered by AerisWeather